Regional Weather Roundup
Issued by NWS

Home | Current Version | Previous Version | Graphics & Text | Print | Product List | Glossary On
Versions: 1 2 3 4 5 6 7 8 9 10 11 12 13 14 15 16 17 18 19 20 21 22 23 24 25 26 27 28 29 30 31 32 33 34 35 36 37 38 39 40 41 42 43 44 45 46 47 48 49 50
000
ASUS43 KIND 151609
RWRIN

WEATHER ROUNDUP FOR INDIANA
NATIONAL WEATHER SERVICE INDIANAPOLIS IN
1100 AM EST SUN JAN 15 2017

NOTE: "FAIR" INDICATES FEW OR NO CLOUDS BELOW 12,000 FEET WITH NO
SIGNIFICANT WEATHER AND/OR OBSTRUCTIONS TO VISIBILITY.

* - STATION DOES NOT REPORT WEATHER SUCH AS PRECIPITATION OR FOG.

+ - STATION NOT QUALITY CONTROLLED BY THE NATIONAL WEATHER SERVICE.
    USE DATA WITH CAUTION...ESPECIALLY DEWPOINT AND RELATIVE
    HUMIDITY OBSERVATIONS.

INZ001>003-010>013-019-020-151700-
NORTHWEST INDIANA

CITY           SKY/WX    TMP DP  RH WIND       PRES   REMARKS
GARY /AIRPORT/ CLOUDY    28  25  86 CALM      30.45R
KNOX *+        CLOUDY    30  14  51 CALM      30.44S
LA PORTE +     CLOUDY    28  26  91 S3        30.44R FOG
MICHIGAN CITY+ CLOUDY    30  30 100 CALM      30.45R
MONTICELLO +   PTSUNNY   31  27  85 CALM      30.43R
RENSSELAER +     N/A     30  30 100 CALM      30.44R FOG
VALPARAISO     CLOUDY    29  26  89 CALM      30.44R FOG

$$

LMZ046-743>745-151700-
SOUTHERN LAKE MICHIGAN

STATION/POSITION TIME  TEMP    WIND        PRES    WAVE
                       AIR SEA DIR/SP/G            HT
                 (UTC) (F)     (DEG/KT/KT) (MB)    (FT)
BURNS HARBOR     1540   27     200/  5/  6 1031.2R

$$

INZ004-005-014>016-021>024-151700-
NORTH CENTRAL INDIANA

CITY           SKY/WX    TMP DP  RH WIND       PRES   REMARKS
ELKHART        SUNNY     27  25  93 CALM      30.44R FOG
GOSHEN         CLOUDY    29  25  85 CALM      30.44R FOG
LOGANSPORT +   CLOUDY    30  28  93 SE5       30.45R FOG     WCI  25
PERU/GRISSOM   CLOUDY    30  28  90 E5        30.42R WCI  26
ROCHESTER +    CLOUDY    32  28  86 CALM      30.45R
SOUTH BEND     CLOUDY    27  25  92 CALM      30.44R FOG
WARSAW +       CLOUDY    28  19  69 CALM      30.45R

$$

INZ006>009-017-018-025>027-151700-
NORTHEAST INDIANA

CITY           SKY/WX    TMP DP  RH WIND       PRES   REMARKS
ANGOLA *+      SUNNY     27  27 100 CALM      30.42S
AUBURN +       CLOUDY    30  25  80 CALM      30.44R
FORT WAYNE     CLOUDY    29  24  82 CALM      30.44S
HUNTINGTON +   CLOUDY    29  26  87 SE3       30.43S
KENDALLVILLE + MOSUNNY   28  26  92 CALM      30.43R FOG

$$

INZ028-029-035-036-043>045-051>053-151700-
WEST CENTRAL INDIANA

CITY           SKY/WX    TMP DP  RH WIND       PRES   REMARKS
CRAWFORDSVL +  PTSUNNY   29  29 100 E5        30.42S WCI  24
GREENCASTLE +  CLOUDY    32  28  86 E7        30.41F FOG     WCI  26
LAFAYETTE      PTSUNNY   31  28  89 E3        30.44R FOG
TERRE HAUTE    CLOUDY    33  28  81 NE3       30.43S HAZE

$$

INZ030>032-037>040-046>048-054>057-064-065-151700-
CENTRAL INDIANA

CITY           SKY/WX    TMP DP  RH WIND       PRES   REMARKS
CP ATTERBURY + CLOUDY    32  32 100 CALM      30.43S FOG
COLUMBUS       CLOUDY    32  32 100 N5        30.43S FOG     WCI  27
FISHERS *+     CLOUDY    28  28 100 CALM      30.43S
FRANKFORT +    MOSUNNY   33  29  86 SE7       30.44S WCI  27
GREENWOOD *+   PTSUNNY   33  31  90 E5        30.42F WCI  29
INDIANAPOLIS   CLOUDY    32  27  81 E6        30.42S FOG     WCI  26
-EAGLE CREEK   CLOUDY    31  25  78 E6        30.41F WCI  25
KOKOMO +       CLOUDY    31  27  85 SE7       30.44R WCI  24
MARION +       CLOUDY    28  25  86 SE5       30.45R WCI  23
MT COMFORT *+  CLOUDY    30  27  86 CALM      30.42S
SHELBYVILLE    CLOUDY    33  28  81 E6        30.41S HAZE    WCI  28
ZIONSVILLE +   CLOUDY    29  26  86 E3        30.43R FOG

$$

INZ033-034-041-042-049-050-058-059-151700-
EAST CENTRAL INDIANA

CITY           SKY/WX    TMP DP  RH WIND       PRES   REMARKS
MUNCIE         CLOUDY    31  26  82 E5        30.42S HAZE    WCI  26

$$

INZ060-061-067>069-081>083-085>088-151700-
SOUTHWEST INDIANA

CITY           SKY/WX    TMP DP  RH WIND       PRES   REMARKS
EVANSVILLE     LGT RAIN  38  36  92 NE7       30.41S FOG
HUNTINGBURG *+ CLOUDY    37  36  93 E8        30.40F
WASHINGTON +   LGT SNOW  35  33  94 NE7       30.41F WCI  29

$$

INZ062-063-066-070>080-084-089>092-151700-
SOUTH CENTRAL AND SOUTHEAST INDIANA

CITY           SKY/WX    TMP DP  RH WIND       PRES   REMARKS
BLOOMINGTON    DRIZZLE   34  30  85 E6        30.40F FOG     WCI  29
MADISON *+     CLOUDY    36  32  87 CALM      30.45R
NORTH VERNON + CLOUDY   N/A N/A N/A CALM      30.43R FOG
SEYMOUR +      CLOUDY    36  34  93 NE5       30.43R FOG

$$





USA.gov is the U.S. government's official web portal to all federal, state and local government web resources and services.